When you browse on this site, cookies collect data to enhance your experience and personalize the content and advertising you see.
Visit our Privacy Policy to learn more. By continuing to use the site, you agree to this use of cookies and data.
  • In Hungary
  • List of Countries
  • For 7 days
  • Water Temperature
  • Satellite Maps
  • Weather Map
  • News
  • Weather Widgets
  • user-avatar
    Login

    Hourly Weather Santa Clara

    Today, 27 June, Thursday

    Time Temperature Precipitation Wind Pressure Humidity
    00:00 +14°C° 0 mm 1 mps 761 mmHg 88%
    01:00 +14°C° 0 mm 1 mps 761 mmHg 88%
    02:00 +14°C° 0 mm 1 mps 761 mmHg 88%
    03:00 +14°C° 0 mm 1 mps 761 mmHg 87%
    04:00 +14°C° 0 mm 1 mps 761 mmHg 87%
    05:00 +15°C° 0 mm 1 mps 761 mmHg 80%
    06:00 +16°C° 0 mm 1 mps 761 mmHg 73%
    07:00 +17°C° 0 mm 2 mps 761 mmHg 65%
    08:00 +19°C° 0 mm 2 mps 761 mmHg 57%
    09:00 +21°C° 0 mm 3 mps 761 mmHg 48%
    10:00 +22°C° 0 mm 3 mps 762 mmHg 39%
    11:00 +24°C° 0 mm 3 mps 762 mmHg 37%
    12:00 +25°C° 0 mm 4 mps 762 mmHg 34%
    13:00 +26°C° 0 mm 4 mps 762 mmHg 32%
    14:00 +26°C° 0 mm 4 mps 761 mmHg 35%
    15:00 +25°C° 0 mm 4 mps 761 mmHg 37%
    16:00 +23°C° 0 mm 4 mps 761 mmHg 40%
    17:00 +21°C° 0 mm 4 mps 761 mmHg 47%
    18:00 +20°C° 0 mm 3 mps 760 mmHg 54%
    19:00 +18°C° 0 mm 3 mps 760 mmHg 60%
    20:00 +17°C° 0 mm 2 mps 761 mmHg 66%
    21:00 +16°C° 0 mm 2 mps 761 mmHg 72%
    22:00 +15°C° 0 mm 2 mps 761 mmHg 78%
    23:00 +15°C° 0 mm 1 mps 760 mmHg 77%

    Tomorrow, 28 June, Friday

    Time Temperature Precipitation Wind Pressure Humidity
    00:00 +15°C° 0 mm 1 mps 760 mmHg 75%
    01:00 +15°C° 0 mm 1 mps 760 mmHg 74%
    02:00 +15°C° 0 mm 1 mps 760 mmHg 73%
    03:00 +15°C° 0 mm 1 mps 760 mmHg 73%
    04:00 +15°C° 0 mm 1 mps 760 mmHg 73%
    05:00 +16°C° 0 mm 1 mps 760 mmHg 70%
    06:00 +18°C° 0 mm 1 mps 760 mmHg 66%
    07:00 +18°C° 0 mm 1 mps 760 mmHg 63%
    08:00 +21°C° 0 mm 1 mps 761 mmHg 54%
    09:00 +23°C° 0 mm 1 mps 761 mmHg 45%
    10:00 +25°C° 0 mm 1 mps 761 mmHg 36%
    11:00 +26°C° 0 mm 2 mps 761 mmHg 33%
    12:00 +27°C° 0 mm 3 mps 761 mmHg 29%
    13:00 +28°C° 0 mm 3 mps 761 mmHg 25%
    14:00 +27°C° 0 mm 4 mps 760 mmHg 28%
    15:00 +27°C° 0 mm 4 mps 760 mmHg 31%
    16:00 +26°C° 0 mm 4 mps 760 mmHg 33%
    17:00 +24°C° 0 mm 3 mps 760 mmHg 39%
    18:00 +21°C° 0 mm 3 mps 760 mmHg 46%
    19:00 +19°C° 0 mm 2 mps 760 mmHg 52%
    20:00 +18°C° 0 mm 2 mps 760 mmHg 59%
    21:00 +16°C° 0 mm 2 mps 760 mmHg 66%
    22:00 +15°C° 0 mm 1 mps 760 mmHg 73%
    23:00 +14°C° 0 mm 1 mps 760 mmHg 75%

    Day after tomorrow, 29 June, Saturday

    Time Temperature Precipitation Wind Pressure Humidity
    00:00 +14°C° 0 mm 1 mps 760 mmHg 77%
    01:00 +14°C° 0 mm 1 mps 760 mmHg 79%
    02:00 +13°C° 0 mm 1 mps 760 mmHg 80%
    03:00 +13°C° 0 mm 1 mps 760 mmHg 81%
    04:00 +13°C° 0 mm 1 mps 760 mmHg 82%
    05:00 +14°C° 0 mm 1 mps 760 mmHg 76%
    06:00 +16°C° 0 mm 1 mps 760 mmHg 70%
    07:00 +18°C° 0 mm 1 mps 760 mmHg 64%
    08:00 +21°C° 0 mm 1 mps 760 mmHg 54%
    09:00 +24°C° 0 mm 1 mps 760 mmHg 44%
    10:00 +27°C° 0 mm 1 mps 760 mmHg 34%
    11:00 +28°C° 0 mm 2 mps 760 mmHg 31%
    12:00 +29°C° 0 mm 2 mps 760 mmHg 28%
    13:00 +30°C° 0 mm 3 mps 760 mmHg 25%
    14:00 +29°C° 0 mm 3 mps 759 mmHg 27%
    15:00 +29°C° 0 mm 3 mps 759 mmHg 29%
    16:00 +28°C° 0 mm 3 mps 759 mmHg 31%
    17:00 +26°C° 0 mm 3 mps 759 mmHg 38%
    18:00 +23°C° 0 mm 2 mps 759 mmHg 46%
    19:00 +20°C° 0 mm 2 mps 759 mmHg 53%
    20:00 +18°C° 0 mm 2 mps 759 mmHg 56%
    21:00 +18°C° 0 mm 1 mps 760 mmHg 60%
    22:00 +16°C° 0 mm 1 mps 760 mmHg 63%
    23:00 +15°C° 0 mm 1 mps 760 mmHg 64%

    30 June, Sunday

    Time Temperature Precipitation Wind Pressure Humidity
    00:00 +15°C° 0 mm 1 mps 760 mmHg 65%
    01:00 +15°C° 0 mm 1 mps 760 mmHg 66%
    02:00 +14°C° 0 mm 1 mps 759 mmHg 67%
    03:00 +14°C° 0 mm 1 mps 759 mmHg 69%
    04:00 +14°C° 0 mm 1 mps 759 mmHg 70%
    05:00 +15°C° 0 mm 1 mps 760 mmHg 65%
    06:00 +18°C° 0 mm 1 mps 760 mmHg 61%
    07:00 +19°C° 0 mm 1 mps 760 mmHg 57%
    08:00 +22°C° 0 mm 1 mps 760 mmHg 49%
    09:00 +24°C° 0 mm 1 mps 760 mmHg 41%
    10:00 +27°C° 0 mm 2 mps 760 mmHg 33%
    11:00 +28°C° 0 mm 2 mps 760 mmHg 31%
    12:00 +29°C° 0 mm 3 mps 760 mmHg 28%
    13:00 +30°C° 0 mm 3 mps 760 mmHg 26%
    14:00 +29°C° 0 mm 3 mps 760 mmHg 29%
    15:00 +28°C° 0 mm 4 mps 759 mmHg 31%
    16:00 +28°C° 0 mm 4 mps 759 mmHg 34%
    17:00 +25°C° 0 mm 3 mps 759 mmHg 43%
    18:00 +22°C° 0 mm 3 mps 759 mmHg 53%
    19:00 +19°C° 0 mm 2 mps 760 mmHg 62%
    20:00 +18°C° 0 mm 2 mps 760 mmHg 67%
    21:00 +17°C° 0 mm 2 mps 760 mmHg 72%
    22:00 +16°C° 0 mm 1 mps 761 mmHg 77%
    23:00 +15°C° 0 mm 1 mps 761 mmHg 79%

    1 July, Monday

    Time Temperature Precipitation Wind Pressure Humidity
    00:00 +15°C° 0 mm 1 mps 760 mmHg 81%
    01:00 +14°C° 0 mm 1 mps 760 mmHg 83%
    02:00 +14°C° 0 mm 1 mps 760 mmHg 84%
    03:00 +14°C° 0 mm 1 mps 760 mmHg 84%
    04:00 +14°C° 0 mm 1 mps 760 mmHg 85%
    05:00 +15°C° 0 mm 1 mps 760 mmHg 79%
    06:00 +18°C° 0 mm 1 mps 760 mmHg 74%
    07:00 +19°C° 0 mm 1 mps 760 mmHg 68%
    08:00 +22°C° 0 mm 1 mps 760 mmHg 57%
    09:00 +24°C° 0 mm 1 mps 760 mmHg 47%
    10:00 +27°C° 0 mm 2 mps 760 mmHg 37%
    11:00 +28°C° 0 mm 2 mps 760 mmHg 34%
    12:00 +29°C° 0 mm 3 mps 760 mmHg 30%
    13:00 +30°C° 0 mm 3 mps 760 mmHg 27%
    14:00 +29°C° 0 mm 3 mps 759 mmHg 29%
    15:00 +29°C° 0 mm 4 mps 759 mmHg 32%
    16:00 +28°C° 0 mm 4 mps 759 mmHg 34%
    17:00 +25°C° 0 mm 3 mps 759 mmHg 42%
    18:00 +22°C° 0 mm 3 mps 758 mmHg 49%
    19:00 +20°C° 0 mm 2 mps 758 mmHg 56%
    20:00 +18°C° 0 mm 2 mps 759 mmHg 62%
    21:00 +17°C° 0 mm 2 mps 759 mmHg 68%
    22:00 +15°C° 0 mm 1 mps 759 mmHg 73%
    23:00 +15°C° 0 mm 1 mps 759 mmHg 75%

    2 July, Tuesday

    Time Temperature Precipitation Wind Pressure Humidity
    00:00 +14°C° 0 mm 1 mps 759 mmHg 77%
    01:00 +14°C° 0 mm 1 mps 758 mmHg 79%
    02:00 +14°C° 0 mm 1 mps 758 mmHg 80%
    03:00 +14°C° 0 mm 1 mps 758 mmHg 80%
    04:00 +13°C° 0 mm 1 mps 758 mmHg 80%
    05:00 +15°C° 0 mm 1 mps 758 mmHg 75%
    06:00 +16°C° 0 mm 1 mps 758 mmHg 70%
    07:00 +18°C° 0 mm 1 mps 759 mmHg 65%
    08:00 +21°C° 0 mm 1 mps 759 mmHg 55%
    09:00 +24°C° 0 mm 1 mps 759 mmHg 46%
    10:00 +26°C° 0 mm 2 mps 759 mmHg 37%
    11:00 +27°C° 0 mm 2 mps 758 mmHg 34%
    12:00 +28°C° 0 mm 2 mps 758 mmHg 31%
    13:00 +30°C° 0 mm 3 mps 758 mmHg 28%
    14:00 +29°C° 0 mm 3 mps 757 mmHg 32%
    15:00 +28°C° 0 mm 3 mps 757 mmHg 36%
    16:00 +27°C° 0 mm 4 mps 757 mmHg 40%
    17:00 +24°C° 0 mm 3 mps 757 mmHg 48%
    18:00 +21°C° 0 mm 3 mps 757 mmHg 56%
    19:00 +19°C° 0 mm 2 mps 757 mmHg 64%
    20:00 +18°C° 0 mm 2 mps 757 mmHg 70%
    21:00 +16°C° 0 mm 1 mps 757 mmHg 76%
    22:00 +15°C° 0 mm 1 mps 758 mmHg 82%
    23:00 +15°C° 0 mm 1 mps 757 mmHg 83%
    Show more